sat.trackr.live / text

‹ back to catalog

STARLINK-37319

NORAD 68706 · 2026-081H

PAYLOAD ACTIVE UNKNOWN

§ Identity

Operator
Country
US
Launch date
2026-04-14
Launch site
AFETR
Launch vehicle
Mass (kg)
RCS (m²)

Purposes: comms

External: N2YO · Heavens-Above · Gunter

§ Orbital elements

Epoch: 2026-09-19T13:39:20.257344Z

Period
93.85 min
Inclination
53.1585°
Eccentricity
0.0000392
Mean motion
15.34399610 rev/d
Perigee alt
462.4 km
Apogee alt
463.0 km
Semi-major
6,840.8 km
B*
6.7616e-4
RAAN
210.2257°
Arg perigee
134.2081°
Mean anomaly
225.8954°
Rev number
2,447

§ Raw data

STARLINK-373191 68706U 26081H   26262.56898446  .00022537  00000+0  67616-3 0  99992 68706  53.1585 210.2257 0000392 134.2081 225.8954 15.34399610 24471

JSON: /api/v1/satellites/68706 · /tle

For live sub-satellite position, see the globe view (requires WebGL).

§ Visibility from observer

Set your observer location to see the next 7 days of passes ≥ 10°. The values pass through the URL so the page stays shareable.

No JS? Fill the form by hand. The geolocation button needs JavaScript.